TimeCST,TemperatureF,Dew PointF,Humidity,Sea Level PressureIn,VisibilityMPH,Wind Direction,Wind SpeedMPH,Gust SpeedMPH,PrecipitationIn,Events,Conditions,WindDirDegrees,DateUTC
12:52 AM,41.0,28.9,62,30.35,10.0,SSE,9.2,-,N/A,,Clear,150,2012-11-18 06:52:00
1:52 AM,41.0,28.9,62,30.34,10.0,SE,10.4,-,N/A,,Clear,140,2012-11-18 07:52:00
2:52 AM,42.1,27.0,55,30.33,10.0,SSE,9.2,-,N/A,,Clear,150,2012-11-18 08:52:00
3:52 AM,41.0,28.0,60,30.32,10.0,SSE,11.5,-,N/A,,Clear,150,2012-11-18 09:52:00
4:52 AM,41.0,28.9,62,30.32,10.0,SSE,12.7,-,N/A,,Clear,150,2012-11-18 10:52:00
5:52 AM,39.9,28.0,63,30.32,10.0,SSE,11.5,-,N/A,,Clear,150,2012-11-18 11:52:00
6:52 AM,39.9,28.0,63,30.32,10.0,SSE,13.8,-,N/A,,Clear,150,2012-11-18 12:52:00
7:52 AM,42.1,30.0,62,30.32,10.0,SSE,12.7,-,N/A,,Clear,150,2012-11-18 13:52:00
8:52 AM,46.9,30.9,54,30.33,10.0,SSE,11.5,-,N/A,,Clear,150,2012-11-18 14:52:00
9:52 AM,52.0,30.0,43,30.33,10.0,SSE,10.4,-,N/A,,Clear,160,2012-11-18 15:52:00
10:52 AM,57.0,30.0,36,30.33,10.0,South,10.4,-,N/A,,Clear,170,2012-11-18 16:52:00
11:52 AM,61.0,30.0,31,30.30,10.0,South,8.1,-,N/A,,Clear,180,2012-11-18 17:52:00
12:52 PM,62.1,30.0,30,30.27,10.0,SSE,9.2,-,N/A,,Clear,160,2012-11-18 18:52:00
1:52 PM,64.0,28.9,27,30.24,10.0,SSE,10.4,-,N/A,,Clear,150,2012-11-18 19:52:00
2:52 PM,63.0,27.0,26,30.22,10.0,SSE,11.5,-,N/A,,Clear,150,2012-11-18 20:52:00
3:52 PM,61.0,27.0,27,30.22,10.0,South,12.7,-,N/A,,Clear,170,2012-11-18 21:52:00
4:52 PM,55.9,30.0,37,30.23,10.0,SSE,8.1,-,N/A,,Clear,150,2012-11-18 22:52:00
5:52 PM,51.1,30.9,46,30.24,10.0,SE,8.1,-,N/A,,Clear,140,2012-11-18 23:52:00
6:52 PM,52.0,32.0,47,30.24,10.0,SE,9.2,-,N/A,,Clear,130,2012-11-19 00:52:00
7:52 PM,52.0,32.0,47,30.25,10.0,SSE,11.5,-,N/A,,Clear,150,2012-11-19 01:52:00
8:52 PM,53.1,32.0,45,30.24,10.0,SSE,13.8,-,N/A,,Clear,150,2012-11-19 02:52:00
9:52 PM,54.0,32.0,43,30.23,10.0,SSE,15.0,-,N/A,,Mostly Cloudy,160,2012-11-19 03:52:00
10:52 PM,54.0,33.1,45,30.22,10.0,SSE,17.3,-,N/A,,Mostly Cloudy,160,2012-11-19 04:52:00
11:52 PM,53.1,34.0,48,30.22,10.0,SSE,11.5,-,N/A,,Overcast,150,2012-11-19 05:52:00